TimeEDT,TemperatureF,Dew PointF,Humidity,Sea Level PressureIn,VisibilityMPH,Wind Direction,Wind SpeedMPH,Gust SpeedMPH,PrecipitationIn,Events,Conditions,WindDirDegrees,DateUTC
12:56 AM,32.0,14.0,48,30.02,10.0,SSW,3.5,-,N/A,,Clear,210,2013-04-05 04:56:00
1:56 AM,31.1,16.2,54,30.02,10.0,Calm,Calm,-,N/A,,Clear,0,2013-04-05 05:56:00
2:56 AM,28.0,16.2,61,30.01,10.0,Calm,Calm,-,N/A,,Clear,0,2013-04-05 06:56:00
3:56 AM,27.1,20.1,75,29.99,10.0,Calm,Calm,-,N/A,,Clear,0,2013-04-05 07:56:00
4:56 AM,27.1,17.1,66,30.00,10.0,Calm,Calm,-,N/A,,Clear,0,2013-04-05 08:56:00
5:56 AM,26.1,17.1,69,30.01,10.0,Calm,Calm,-,N/A,,Clear,0,2013-04-05 09:56:00
6:56 AM,25.2,18.1,75,30.04,10.0,Calm,Calm,-,N/A,,Scattered Clouds,0,2013-04-05 10:56:00
7:56 AM,28.0,22.1,78,30.06,10.0,Calm,Calm,-,N/A,,Mostly Cloudy,0,2013-04-05 11:56:00
8:56 AM,32.0,21.0,64,30.07,10.0,Calm,Calm,-,N/A,,Overcast,0,2013-04-05 12:56:00
9:56 AM,39.9,26.1,58,30.07,10.0,NNW,6.9,-,N/A,,Mostly Cloudy,330,2013-04-05 13:56:00
10:56 AM,45.9,27.1,48,30.08,10.0,NNW,9.2,16.1,N/A,,Clear,330,2013-04-05 14:56:00
11:56 AM,47.8,28.0,46,30.09,10.0,NW,12.7,18.4,N/A,,Clear,320,2013-04-05 15:56:00
12:56 PM,47.8,27.1,45,30.09,10.0,NNW,11.5,19.6,N/A,,Partly Cloudy,340,2013-04-05 16:56:00
1:56 PM,48.2,26.6,43,30.02,10.0,NNW,12.7,21.9,N/A,,Mostly Cloudy,330,2013-04-05 17:56:00
2:56 PM,50.0,25.2,38,30.10,10.0,NW,16.1,24.2,N/A,,Scattered Clouds,310,2013-04-05 18:56:00
3:56 PM,46.9,24.1,41,30.10,10.0,NW,17.3,23.0,N/A,,Partly Cloudy,320,2013-04-05 19:56:00
4:56 PM,45.9,23.0,41,30.12,10.0,NW,12.7,25.3,N/A,,Clear,320,2013-04-05 20:56:00
5:56 PM,43.9,21.0,40,30.14,10.0,NNW,13.8,-,N/A,,Clear,330,2013-04-05 21:56:00
6:56 PM,39.9,19.0,43,30.17,10.0,North,13.8,19.6,N/A,,Clear,350,2013-04-05 22:56:00
7:56 PM,37.4,19.4,48,30.12,10.0,NNW,10.4,-,N/A,,Clear,330,2013-04-05 23:56:00
8:56 PM,34.0,20.1,57,30.23,10.0,NNW,8.1,-,N/A,,Clear,330,2013-04-06 00:56:00
9:56 PM,32.0,19.0,59,30.26,10.0,North,8.1,-,N/A,,Clear,360,2013-04-06 01:56:00
10:56 PM,30.0,18.1,61,30.27,10.0,NNW,6.9,-,N/A,,Clear,340,2013-04-06 02:56:00
11:56 PM,28.0,18.1,66,30.28,10.0,WNW,3.5,-,N/A,,Clear,300,2013-04-06 03:56:00